• In Hungary
  • List of Countries
  • For 7 days
  • Water Temperature
  • Satellite Maps
  • Weather Map
  • News
  • Weather Widgets
  • user-avatar
    Login

    Hourly Weather Kedabek

    Today, 22 January, Monday

    Time Temperature Precipitation Wind Pressure Humidity
    00:00 -4°C° 0 mm 3 mps 617 mmHg 53%
    01:00 -4°C° 0 mm 3 mps 617 mmHg 53%
    02:00 -2°C° 0 mm 3 mps 617 mmHg 52%
    03:00 -2°C° 0 mm 3 mps 616 mmHg 51%
    04:00 -2°C° 0 mm 3 mps 616 mmHg 50%
    05:00 -2°C° 0 mm 2 mps 616 mmHg 50%
    06:00 -2°C° 0 mm 2 mps 616 mmHg 49%
    07:00 -1°C° 0 mm 2 mps 616 mmHg 49%
    08:00 -1°C° 0 mm 2 mps 616 mmHg 48%
    09:00 -1°C° 0 mm 2 mps 616 mmHg 47%
    10:00 +1°C° 0 mm 2 mps 616 mmHg 47%
    11:00 +2°C° 0 mm 2 mps 616 mmHg 47%
    12:00 +3°C° 0 mm 2 mps 615 mmHg 47%
    13:00 +4°C° 0 mm 1 mps 615 mmHg 49%
    14:00 +4°C° 0 mm 1 mps 615 mmHg 50%
    15:00 +4°C° 0 mm 1 mps 614 mmHg 51%
    16:00 +2°C° 0 mm 2 mps 614 mmHg 52%
    17:00 +1°C° 0 mm 2 mps 613 mmHg 53%
    18:00 -2°C° 0 mm 2 mps 613 mmHg 53%
    19:00 -2°C° 0 mm 2 mps 612 mmHg 51%
    20:00 -2°C° 0 mm 3 mps 612 mmHg 48%
    21:00 -4°C° 0 mm 3 mps 612 mmHg 45%
    22:00 -4°C° 0 mm 3 mps 612 mmHg 45%
    23:00 -4°C° 0 mm 3 mps 612 mmHg 44%

    Tomorrow, 23 January, Tuesday

    Time Temperature Precipitation Wind Pressure Humidity
    00:00 -4°C° 0 mm 3 mps 612 mmHg 44%
    01:00 -4°C° 0 mm 3 mps 612 mmHg 44%
    02:00 -4°C° 0 mm 3 mps 612 mmHg 45%
    03:00 -5°C° 0 mm 3 mps 612 mmHg 46%
    04:00 -5°C° 0 mm 3 mps 612 mmHg 46%
    05:00 -5°C° 0 mm 3 mps 612 mmHg 47%
    06:00 -5°C° 0 mm 3 mps 612 mmHg 48%
    07:00 -4°C° 0 mm 3 mps 612 mmHg 47%
    08:00 -4°C° 0 mm 3 mps 613 mmHg 47%
    09:00 -2°C° 0 mm 3 mps 613 mmHg 47%
    10:00 -1°C° 0 mm 3 mps 613 mmHg 45%
    11:00 +1°C° 0 mm 3 mps 613 mmHg 43%
    12:00 +2°C° 0 mm 3 mps 613 mmHg 41%
    13:00 +2°C° 0 mm 3 mps 613 mmHg 42%
    14:00 +3°C° 0 mm 2 mps 613 mmHg 43%
    15:00 +3°C° 0 mm 2 mps 613 mmHg 44%
    16:00 +2°C° 0 mm 2 mps 613 mmHg 46%
    17:00 +1°C° 0 mm 2 mps 613 mmHg 49%
    18:00 -2°C° 0 mm 2 mps 613 mmHg 51%
    19:00 -2°C° 0 mm 2 mps 613 mmHg 51%
    20:00 -2°C° 0 mm 2 mps 613 mmHg 50%
    21:00 -2°C° 0 mm 2 mps 613 mmHg 50%
    22:00 -2°C° 0 mm 2 mps 613 mmHg 51%
    23:00 -2°C° 0 mm 2 mps 613 mmHg 51%

    Day after tomorrow, 24 January, Wednesday

    Time Temperature Precipitation Wind Pressure Humidity
    00:00 -2°C° 0 mm 2 mps 613 mmHg 52%
    01:00 -2°C° 0 mm 2 mps 613 mmHg 54%
    02:00 -2°C° 0 mm 2 mps 614 mmHg 56%
    03:00 -2°C° 0 mm 2 mps 614 mmHg 58%
    04:00 -3°C° 0 mm 2 mps 614 mmHg 60%
    05:00 -3°C° 0 mm 2 mps 614 mmHg 62%
    06:00 -3°C° 0 mm 2 mps 614 mmHg 64%
    07:00 -3°C° 0 mm 2 mps 614 mmHg 63%
    08:00 -2°C° 0 mm 2 mps 615 mmHg 63%
    09:00 -2°C° 0 mm 2 mps 615 mmHg 62%
    10:00 -1°C° 0 mm 2 mps 616 mmHg 61%
    11:00 0°C° 0 mm 3 mps 616 mmHg 59%
    12:00 +1°C° 0 mm 3 mps 616 mmHg 58%
    13:00 +1°C° 0 mm 3 mps 616 mmHg 58%
    14:00 +1°C° 0 mm 3 mps 616 mmHg 58%
    15:00 +1°C° 0 mm 3 mps 616 mmHg 58%
    16:00 +1°C° 0 mm 2 mps 616 mmHg 62%
    17:00 -1°C° 0 mm 2 mps 617 mmHg 66%
    18:00 -1°C° 0 mm 1 mps 617 mmHg 71%
    19:00 -1°C° 0 mm 1 mps 617 mmHg 71%
    20:00 -1°C° 0 mm 1 mps 617 mmHg 71%
    21:00 -2°C° 0 mm 1 mps 617 mmHg 71%
    22:00 -2°C° 0 mm 1 mps 617 mmHg 72%
    23:00 -2°C° 0 mm 1 mps 618 mmHg 72%

    25 January, Thursday

    Time Temperature Precipitation Wind Pressure Humidity
    00:00 -2°C° 0 mm 1 mps 618 mmHg 73%
    01:00 -2°C° 0 mm 1 mps 618 mmHg 75%
    02:00 -3°C° 0 mm 1 mps 618 mmHg 77%
    03:00 -3°C° 0 mm 1 mps 618 mmHg 79%
    04:00 -3°C° 0 mm 1 mps 618 mmHg 82%
    05:00 -3°C° 0 mm 1 mps 618 mmHg 84%
    06:00 -3°C° 0 mm 1 mps 618 mmHg 86%
    07:00 -3°C° 0.1 mm 1 mps 618 mmHg 86%
    08:00 -3°C° 0.1 mm 1 mps 619 mmHg 86%
    09:00 -4°C° 0.1 mm 2 mps 619 mmHg 86%
    10:00 -4°C° 0.1 mm 2 mps 619 mmHg 85%
    11:00 -4°C° 0.1 mm 2 mps 619 mmHg 84%
    12:00 -3°C° 0.1 mm 2 mps 619 mmHg 83%
    13:00 -3°C° 0.2 mm 2 mps 619 mmHg 84%
    14:00 -3°C° 0.2 mm 2 mps 619 mmHg 85%
    15:00 -3°C° 0.2 mm 2 mps 618 mmHg 86%
    16:00 -4°C° 0.1 mm 2 mps 618 mmHg 88%
    17:00 -4°C° 0.1 mm 2 mps 619 mmHg 90%
    18:00 -5°C° 0.1 mm 2 mps 619 mmHg 92%
    19:00 -5°C° 0.1 mm 2 mps 619 mmHg 92%
    20:00 -5°C° 0.1 mm 2 mps 619 mmHg 92%
    21:00 -5°C° 0.1 mm 2 mps 619 mmHg 93%
    22:00 -5°C° 0.2 mm 2 mps 619 mmHg 93%
    23:00 -5°C° 0.2 mm 2 mps 619 mmHg 93%

    26 January, Friday

    Time Temperature Precipitation Wind Pressure Humidity
    00:00 -5°C° 0.2 mm 2 mps 619 mmHg 93%
    01:00 -5°C° 0.1 mm 2 mps 619 mmHg 93%
    02:00 -6°C° 0.1 mm 2 mps 619 mmHg 93%
    03:00 -6°C° 0.1 mm 2 mps 619 mmHg 93%
    04:00 -6°C° 0 mm 2 mps 618 mmHg 93%
    05:00 -6°C° 0 mm 2 mps 618 mmHg 93%
    06:00 -6°C° 0 mm 2 mps 618 mmHg 93%
    07:00 -6°C° 0.1 mm 2 mps 618 mmHg 92%
    08:00 -6°C° 0.1 mm 2 mps 619 mmHg 92%
    09:00 -5°C° 0.1 mm 2 mps 619 mmHg 91%
    10:00 -5°C° 0.3 mm 2 mps 618 mmHg 90%
    11:00 -5°C° 0.3 mm 2 mps 618 mmHg 89%
    12:00 -6°C° 0.3 mm 3 mps 618 mmHg 88%
    13:00 -6°C° 0.2 mm 3 mps 618 mmHg 88%
    14:00 -5°C° 0.2 mm 2 mps 617 mmHg 89%
    15:00 -5°C° 0.2 mm 2 mps 617 mmHg 89%
    16:00 -5°C° 0.1 mm 2 mps 617 mmHg 90%
    17:00 -5°C° 0.1 mm 2 mps 617 mmHg 91%
    18:00 -6°C° 0.1 mm 2 mps 617 mmHg 92%
    19:00 -6°C° 0.2 mm 2 mps 618 mmHg 92%
    20:00 -6°C° 0.2 mm 2 mps 618 mmHg 93%
    21:00 -6°C° 0.2 mm 2 mps 618 mmHg 93%
    22:00 -4°C° 0.2 mm 1 mps 618 mmHg 93%
    23:00 -4°C° 0.2 mm 1 mps 618 mmHg 93%

    27 January, Saturday

    Time Temperature Precipitation Wind Pressure Humidity
    00:00 -6°C° 0.2 mm 1 mps 618 mmHg 94%
    01:00 -6°C° 0.2 mm 1 mps 618 mmHg 94%
    02:00 -6°C° 0.2 mm 1 mps 618 mmHg 95%
    03:00 -6°C° 0.2 mm 1 mps 617 mmHg 95%
    04:00 -6°C° 0.2 mm 1 mps 618 mmHg 95%
    05:00 -6°C° 0.2 mm 1 mps 618 mmHg 95%
    06:00 -6°C° 0.2 mm 1 mps 618 mmHg 95%
    07:00 -6°C° 0.1 mm 1 mps 618 mmHg 94%
    08:00 -6°C° 0.1 mm 1 mps 618 mmHg 93%
    09:00 -4°C° 0.1 mm 1 mps 618 mmHg 92%
    10:00 -6°C° 0.1 mm 2 mps 618 mmHg 90%
    11:00 -6°C° 0.1 mm 2 mps 619 mmHg 89%
    12:00 -5°C° 0.1 mm 2 mps 619 mmHg 87%
    13:00 -5°C° 0.1 mm 2 mps 619 mmHg 87%
    14:00 -5°C° 0.1 mm 2 mps 618 mmHg 87%
    15:00 -5°C° 0.1 mm 2 mps 618 mmHg 86%
    16:00 -5°C° 0.1 mm 2 mps 619 mmHg 88%
    17:00 -6°C° 0.1 mm 2 mps 619 mmHg 90%
    18:00 -4°C° 0.1 mm 1 mps 619 mmHg 91%
    19:00 -6°C° 0.1 mm 1 mps 619 mmHg 92%
    20:00 -6°C° 0.1 mm 1 mps 620 mmHg 92%
    21:00 -6°C° 0.1 mm 1 mps 620 mmHg 93%
    22:00 -6°C° 0.1 mm 1 mps 620 mmHg 93%
    23:00 -7°C° 0.1 mm 1 mps 620 mmHg 94%
    Show more